星链-5938 (STARLINK-5938 )

导读 | 星芒AI

STARLINK-5938 是 SpaceX Starlink 项目中的一颗低轨道通信卫星,属于第 17 批组网发射的“星链”卫星之一。该卫星于 2022 年 9 月 由猎鹰 9 号火箭送入近地轨道,旨在为全球提供高速互联网服务。它运行在约 550 公里的高度,采用先进通信技术,支持宽带接入和低延迟数据传输。Starlink 卫星群致力于改善偏远地区网络覆盖,推动全球互联网普及。STARLINK-5938 在系统中发挥关键作用,与其他卫星协同工作,构建稳定的全球通信网络。

基本信息
目录编号:
55960
目录名称:
STARLINK-5938
国际标识:
2023-037AY
轨道中心:
EARTH
卫星名称:
星链-5938
卫星全名:
星链-5938 (STARLINK-5938 )
卫星状态:
在轨 (已飞行1010 天)
发射日期:
2023-03-17 UTC
国别 :
美国 (US)
星等 :
--
轨道信息
数据来源 国际轨道数据
星历时间: 2025-12-21T01:25:54+0800
22小时前
查看轨道信息
半长轴: 6950.226km
偏心率: 0.0003346
轨道倾角: 70.000°
近地点辐角 275.675°
升交点赤经 103.600°
平近点角 84.403°
近地点: 569.763km
远地点: 574.415km
周期: 96.108分钟
每日圈数: 14.983195
详细信息
固有亮度:
5
最大亮度:
2.5
卫星平台:
Starlink v1.5
覆盖范围:
全球
运营商:
太空探索技术公司
运营商所在国:
美国
制造商(研发单位):
太空探索技术公司
制造商所在国:
美国
使用方式:
暂无
卫星简介
星链(Starlink)计划是由太空探索技术公司(SpaceX)提出的一个巨型低轨卫星互联网星座项目,计划在2019年至2024年间在太空搭建由约1.2万颗卫星组成的“星链”网络,其中1584颗将部署在地球上空550千米处的近地轨道,并从2020年开始工作。该卫星仍在工作。
2D轨道图
3D轨道图
轨道高度分析图
轨道倾角分析图
轨道综合分析图
查看轨道综合分析图